THORAD AGENA D DEB, 42510

Orbit data source: Space-Track

THORAD AGENA D DEB, 42510 is space debris in SSO originally from a launch on Wed, 08 Apr 1970 UTC launched from the Air Force Western Test Range (AFWTR). Debris objects in space refer to the collection of defunct objects orbiting the Earth. Examples of debris include non-operational satellites, rocket bodies, and fragments generated from explosions, collisions, or faulty payload assembly.

Loading next visibility...
Identifier
42510, 1970-025RQ
Orbit
SSO
Country
Flag of USUS
Related business
Manufacturer
Unknown
Mission
Spacecraft
Bus & Motor
Unknown
Mass
Unknown
Launch date (UTC)
1970-04-08 (56 years ago)
Launch vehicle
Unknown
Launch site
Air Force Western Test Range (AFWTR)
Object type
Payload
Rocket body
Debris
Shape & HBR
Unknown shape, 0.1 m
Radar Cross Section
Small (<0.1 m²)

Expand to show TLE details & history
Last TLE update: 1 month ago

TLE from 1 month ago
0 THORAD AGENA D DEB
1 42510U 70025RQ  25243.73063088  .00001330  00000-0  12952-2 0  9995
2 42510 100.0301 231.2819 0005512  89.0675  91.6104 13.81496347592354
Epoch: 2025-08-31T17:32Z
TLE epoch observation values (Epoch: 2025-08-31T17:32:06.508Z)
Latitude
-0.84809°
Longitude
167.95918°
Altitude
961.631 km
Speed
7.371 km/s
True Right ascension
03h 24m 31s
True Declination
0° 50' 35"
Sunlit
Object was in daylight at epoch
Visualization orbit readout
Latitude
Unknown
Longitude
Unknown
Altitude
Unknown
Speed
Unknown
Apparent Right ascension
Unknown
Apparent Declination
Unknown
Sunlit
N/A
Visualization observer readout
Local Sidereal Time
02:54:07
Azimuth
Unknown
Elevation
Unknown
Doppler factor
Unknown
Orbital elements
Apogee altitude
959.904 km
Perigee altitude
951.819 km
Semi-major axis
7,333.998 km
Eccentricity
0.00055
Inclination
100.0301°
RAAN
231.2819°
Arg. of periapsis
89.0675°
True anomaly
91.67354°
Mean anomaly
91.6104°
Eccentric anomaly
91.64197°
Mean motion
3.45567 °/min
Orbital period
104.18 mins
BSTAR
0.0012952

Documentation

Showing up to 5 results
|